Weather History for KPOF - August, 2014

Change the Weather History Date:

Thursday, August 28, 2014

  Actual Average Record
Temperature  
Mean Temperature 82 °F -  
Max Temperature 91 °F 88 °F 104 °F (1936)
Min Temperature 72 °F 65 °F 44 °F (1967)
Cooling Degree Days 16    
Growing Degree Days 32 (Base 50)    
Moisture  
Dew Point 69 °F    
Average Humidity 69    
Maximum Humidity 91    
Minimum Humidity 42    
Precipitation  
Precipitation 0.00 in - - ()
Sea Level Pressure  
Sea Level Pressure 29.98 in    
Wind  
Wind Speed 3 mph (SSE)    
Max Wind Speed 9 mph    
Max Gust Speed -    
Visibility 7 miles    
Events      
Averages and records for this station are not official NWS values.
T = Trace of Precipitation, MM = Missing Value Source: NWS Daily Summary

Daily Weather History Graph

Daily Weather History Graph

Search for Another Location

Airport or City:

Trip Planner

Search our weather history database for the weather conditions in past years. The results will help you decide how hot, cold, wet, or windy it might be!

Date:

Astronomy

Aug. 28, 2014 Rise Set
Actual Time 6:29 AM CDT 7:35 PM CDT
Civil Twilight 6:02 AM CDT 8:01 PM CDT
Nautical Twilight 5:30 AM CDT 8:33 PM CDT
Astronomical Twilight 4:57 AM CDT 9:06 PM CDT
Moon 9:16 AM CDT (8/28) 9:05 PM CDT (8/28)
Length of Visible Light 13h 59m
Length of Day
13h 06m
Waxing Crescent, 9% of the Moon is Illuminated
Aug 28
Waxing Crescent
Sep 2
First Quarter
Sep 8
Full
Sep 15
Last Quarter
Sep 24
New

Hourly Weather History & Observations

Time (CDT) Temp. Heat Index Dew Point Humidity Pressure Visibility Wind Dir Wind Speed Gust Speed Precip Events Conditions
12:53 AM 77.0 °F - 71.1 °F 82% 30.01 in 7.0 mi NNE 3.5 mph - N/A   Mostly Cloudy
1:53 AM 75.9 °F - 71.1 °F 85% 30.00 in 6.0 mi Calm Calm - N/A   Haze
2:53 AM 75.0 °F - 70.0 °F 84% 30.00 in 5.0 mi Calm Calm - N/A   Haze
3:53 AM 73.9 °F - 70.0 °F 87% 29.99 in 4.0 mi Calm Calm - N/A   Clear
4:53 AM 73.0 °F - 69.1 °F 87% 29.99 in 4.0 mi Calm Calm - N/A   Clear
5:53 AM 73.0 °F - 69.1 °F 87% 30.00 in 4.0 mi North 3.5 mph - N/A   Clear
6:42 AM 72.0 °F - 69.1 °F 91% 30.02 in 2.5 mi Calm Calm - N/A   Clear
6:53 AM 72.0 °F - 69.1 °F 91% 30.01 in 2.5 mi Calm Calm - N/A   Clear
7:00 AM 73.0 °F - 69.1 °F 87% 30.02 in 3.0 mi Calm Calm - N/A   Clear
7:53 AM 75.9 °F - 71.1 °F 85% 30.02 in 4.0 mi Calm Calm - N/A   Haze
8:53 AM 80.1 °F 83.6 °F 71.1 °F 74% 30.02 in 7.0 mi Calm Calm - N/A   Clear
10:53 AM 87.1 °F 90.6 °F 68.0 °F 53% 30.01 in 10.0 mi Variable 3.5 mph - N/A   Clear
11:53 AM 88.0 °F 91.4 °F 68.0 °F 51% 30.00 in 10.0 mi SSE 5.8 mph - N/A   Clear
12:53 PM 91.0 °F 95.2 °F 68.0 °F 47% 29.99 in 10.0 mi SW 6.9 mph - N/A   Clear
1:53 PM 91.0 °F 94.3 °F 66.9 °F 45% 29.96 in 10.0 mi SW 9.2 mph - N/A   Clear
2:53 PM 91.0 °F 93.8 °F 66.0 °F 44% 29.95 in 10.0 mi SW 9.2 mph - N/A   Clear
3:53 PM 91.0 °F 93.8 °F 66.0 °F 44% 29.92 in 10.0 mi SW 5.8 mph - N/A   Clear
4:53 PM 91.0 °F 93.8 °F 66.0 °F 44% 29.91 in 10.0 mi SW 5.8 mph - N/A   Clear
5:53 PM 90.0 °F 91.3 °F 64.0 °F 42% 29.92 in 10.0 mi SSW 5.8 mph - N/A   Partly Cloudy
6:53 PM 89.1 °F 91.3 °F 66.0 °F 46% 29.91 in 10.0 mi SSE 3.5 mph - N/A   Clear
7:53 PM 82.9 °F 86.5 °F 69.1 °F 63% 29.92 in 10.0 mi East 3.5 mph - N/A   Clear
8:53 PM 80.1 °F 83.2 °F 70.0 °F 71% 29.94 in 9.0 mi ENE 6.9 mph - N/A   Clear
9:53 PM 77.0 °F - 70.0 °F 79% 29.95 in 9.0 mi East 4.6 mph - N/A   Clear
10:53 PM 75.0 °F - 69.1 °F 82% 29.96 in 8.0 mi East 5.8 mph - N/A   Clear
11:53 PM 73.9 °F - 68.0 °F 82% 29.96 in 7.0 mi Calm Calm - N/A   Clear